RH
19 21 22 23 24 25 26 27 28 28 29 29 29 30 30 29 27 25 23 22 21 20 19 20 17 13 9 8 8 7 9 9 11 10 7 10 12 11 7 6 4 3 3 3 4 4 6 8 9 11 10 16 19 27 59 75 70 70 71 70 68 62 56 55 56 58 51 44 42 43 47 49 50 53 58 67 67 65 63 61 60 57 62 61 56 58 57 57
12 13 15 17 18 20 22 23 25 26 27 28 28 28 29 29 29 28 26 24 22 21 20 20 20 18 14 9 8 7 8 8 9 7 7 12 12 10 10 7 5 3 3 3 3 4 5 6 8 10 10 21 36 38 50 68 67 64 66 64 62 59 54 53 59 65 58 46 45 43 45 48 47 48 56 65 66 68 71 70 57 48 54 51 50 56 56 56
7 8 8 10 11 13 15 17 20 22 25 26 27 27 27 28 28 29 28 27 24 23 21 20 20 20 18 14 9 7 7 7 6 5 8 15 13 10 11 9 7 5 3 3 3 4 5 6 7 6 14 34 54 57 52 59 64 60 58 56 58 57 51 52 55 59 58 53 48 44 45 47 46 46 54 60 60 66 71 73 63 49 47 42 45 52 53 56
5 5 5 6 6 7 8 10 12 15 18 20 24 25 27 27 27 28 28 28 26 25 23 22 21 20 20 17 13 9 7 7 6 5 8 13 12 10 10 9 8 5 3 3 3 4 4 9 15 18 35 48 54 63 57 55 61 59 53 49 54 55 49 51 52 54 57 53 49 45 45 49 46 44 50 55 58 66 68 70 68 51 43 42 41 46 51 55
4 4 4 4 4 5 5 6 7 8 10 12 15 18 23 25 26 27 26 27 27 26 26 24 22 20 20 19 17 13 7 10 11 6 6 10 11 10 10 9 9 6 4 3 3 4 4 20 39 46 60 59 51 60 56 52 56 54 51 50 53 54 50 49 48 55 56 49 48 44 42 49 49 44 49 54 55 62 64 69 74 56 43 44 40 43 49 50
4 4 4 4 3 3 3 4 4 4 5 6 8 10 14 19 23 25 26 26 26 27 27 26 25 22 21 19 19 16 10 14 15 9 8 11 10 10 10 10 11 7 6 4 2 9 14 33 56 61 68 64 53 55 50 48 53 51 49 49 52 53 51 49 51 59 57 49 48 44 45 49 49 46 49 53 53 56 60 67 72 57 46 46 39 42 47 46
4 4 4 4 4 4 4 3 3 3 3 4 5 5 7 10 15 20 24 26 26 26 26 27 26 24 23 20 19 18 14 11 11 10 10 11 10 11 10 10 12 9 8 4 3 27 38 42 59 64 66 62 51 50 45 45 49 49 48 46 50 54 52 52 55 60 56 53 51 47 48 47 46 49 49 50 51 52 59 68 68 53 47 48 39 39 46 46
4 4 4 4 4 4 4 4 4 4 3 4 3 4 4 5 8 11 17 21 24 26 25 27 27 26 24 22 21 19 15 10 9 10 8 9 10 11 10 9 13 9 11 4 4 41 54 47 59 63 63 57 47 45 42 43 44 46 46 44 49 53 55 55 55 57 53 52 51 46 44 40 42 47 47 49 50 51 58 67 67 50 41 47 45 41 45 50
3 3 4 4 4 4 5 5 5 5 4 4 4 4 3 3 4 6 9 13 19 23 25 26 25 26 25 25 23 18 16 12 9 9 7 8 8 10 10 9 11 10 12 5 10 47 55 49 58 57 57 54 45 41 38 39 40 42 43 42 43 46 53 57 58 56 50 49 50 46 42 38 39 42 44 47 49 51 57 66 66 48 35 43 49 46 43 47
2 3 3 3 3 3 4 4 5 5 5 5 5 5 4 4 4 4 5 7 11 16 22 25 25 26 25 26 25 19 20 17 10 8 7 8 7 9 10 10 11 10 13 7 16 48 50 46 54 51 53 51 43 39 36 36 36 39 41 39 39 40 45 51 55 55 50 49 48 45 43 39 38 38 39 45 50 48 53 66 67 53 40 40 46 48 44 42
2 2 2 2 2 2 2 3 3 4 4 5 6 6 5 5 4 4 4 4 6 8 14 20 24 25 24 25 24 20 22 22 17 12 9 8 7 9 10 10 11 10 13 8 17 44 45 40 45 46 50 47 40 36 34 34 35 38 39 39 40 40 39 41 47 51 50 49 47 46 43 40 38 36 35 42 49 47 51 64 69 63 52 43 42 45 48 44
1 1 2 2 1 2 2 2 2 2 3 3 4 5 6 5 5 5 4 4 4 4 6 12 19 23 25 24 21 24 25 23 21 20 19 14 7 9 12 13 12 12 13 8 19 42 42 36 38 41 45 41 35 32 32 33 33 36 38 40 42 41 39 37 39 44 46 47 46 46 44 42 40 36 35 40 45 46 50 59 65 68 63 53 45 41 45 46
1 1 1 1 1 1 1 1 1 2 2 2 2 3 4 5 5 5 5 5 4 4 4 5 11 17 23 22 20 26 27 24 22 21 22 16 8 9 13 16 13 14 15 10 26 45 40 35 33 36 41 37 31 28 30 33 32 33 36 41 42 40 39 37 37 40 43 44 45 45 41 40 40 37 36 39 44 46 48 56 62 68 71 64 51 44 44 44
2 1 2 2 2 1 1 1 1 1 1 1 2 2 2 3 4 5 5 5 4 4 3 3 5 9 16 20 22 26 27 25 22 19 18 13 10 12 13 17 16 16 15 14 35 48 38 34 32 32 37 36 31 27 27 32 33 32 34 40 42 38 37 37 39 39 39 41 44 44 40 37 37 36 36 39 45 46 48 57 62 66 73 67 49 42 46 44
2 2 2 2 2 2 1 1 1 1 1 1 1 1 1 2 2 3 4 4 5 4 4 3 3 5 10 15 20 24 26 25 22 19 19 12 11 20 18 14 17 18 14 19 40 48 39 36 31 30 34 33 32 30 27 27 30 32 34 37 39 37 35 34 34 36 37 37 40 42 38 36 34 32 34 39 45 47 49 57 62 65 69 69 53 41 46 46
2 2 2 2 2 2 2 2 2 1 1 1 1 1 1 1 1 2 2 3 4 4 4 3 3 4 6 11 17 22 24 24 23 20 20 15 11 25 30 19 20 23 19 25 40 46 42 38 33 32 33 31 30 31 31 28 26 29 31 32 34 34 33 30 27 29 33 33 35 38 37 35 31 30 32 37 42 44 49 57 63 66 66 71 64 45 42 45
3 2 2 3 2 2 2 2 2 1 2 1 1 2 1 1 1 1 2 2 3 4 4 3 4 4 4 8 13 19 23 24 26 23 22 20 11 26 44 34 28 31 29 34 41 44 43 39 36 34 32 30 28 29 32 31 27 26 27 28 29 30 30 27 23 23 27 30 32 35 36 33 30 31 32 35 40 41 48 57 59 59 59 63 63 49 39 42
3 3 3 3 2 3 2 2 2 2 2 2 2 2 1 1 1 1 1 1 2 2 2 4 2 3 11 15 13 18 25 24 27 24 23 22 13 28 53 45 38 43 41 42 42 42 43 40 38 35 31 30 28 28 30 30 27 26 25 24 26 27 26 24 21 20 22 26 30 32 33 32 30 34 35 37 41 41 44 50 52 55 58 57 56 50 41 39
2 3 2 3 3 3 3 3 3 2 2 2 2 2 2 2 1 2 2 1 3 1 8 22 14 7 19 26 21 22 25 25 28 26 25 23 13 28 53 50 46 51 47 43 39 38 42 42 39 35 31 29 29 29 29 29 26 25 23 21 22 23 23 21 19 18 20 23 26 29 31 31 30 33 37 38 40 41 42 44 46 52 61 59 50 44 41 40
2 3 2 3 2 2 3 2 2 3 3 2 2 2 2 2 1 3 3 1 3 1 9 25 19 8 14 21 26 31 29 26 29 27 26 24 15 24 44 45 46 48 44 40 36 37 43 44 39 35 32 29 29 31 31 29 24 22 21 18 19 19 18 18 17 18 20 22 24 27 30 29 29 30 33 37 40 41 42 46 46 43 49 57 51 40 38 42
3 2 3 3 2 3 2 2 3 2 3 3 3 2 2 3 2 3 3 1 3 2 2 9 12 9 9 12 20 30 30 28 30 28 27 24 17 23 36 41 44 43 40 38 37 40 44 42 38 35 33 30 29 30 32 29 23 20 18 16 15 15 16 16 17 17 19 22 23 26 29 28 28 28 29 34 39 41 40 44 46 41 42 53 55 44 39 43
3 3 3 3 3 3 2 3 3 2 3 3 2 3 3 3 3 2 3 1 1 2 1 4 8 8 6 8 13 21 28 29 31 29 25 24 20 21 33 42 44 41 39 39 39 40 40 38 36 33 31 30 28 27 28 27 24 21 18 15 12 12 14 15 16 16 18 22 23 25 28 27 27 28 28 29 34 37 37 37 40 42 44 53 57 52 48 46
4 4 4 4 4 3 3 3 3 3 3 2 3 4 3 3 4 3 3 3 2 1 1 1 4 4 4 7 10 16 20 21 28 30 24 24 22 20 31 41 42 40 40 40 35 34 34 32 32 32 29 27 26 25 25 24 24 23 19 15 12 12 13 14 15 15 18 21 21 23 26 26 27 28 28 29 29 31 32 33 35 38 42 49 53 50 50 46
5 5 5 5 5 4 4 3 3 4 2 5 9 7 4 4 3 3 3 2 2 2 2 2 1 3 4 4 7 12 13 12 21 30 26 24 23 20 28 38 39 37 37 35 30 27 28 26 26 29 28 26 25 24 23 23 23 24 21 16 13 13 13 13 13 14 17 20 20 21 23 24 26 26 27 27 28 27 28 30 32 34 37 43 47 46 48 45
6 6 7 7 6 6 5 4 4 4 3 9 11 7 5 4 3 4 5 5 4 -0 1 3 1 2 3 4 5 6 10 10 13 26 30 25 23 21 23 32 35 34 33 31 26 23 22 21 22 24 24 24 23 23 23 23 23 24 23 18 13 13 13 13 12 13 16 18 20 21 22 23 23 25 25 25 26 25 25 26 29 33 34 38 45 47 47 46
6 7 8 8 8 7 6 5 5 3 4 8 6 5 5 5 6 3 8 23 21 7 6 8 6 5 3 3 4 4 11 12 7 20 31 26 23 21 20 26 31 30 30 29 25 21 20 20 20 22 22 21 21 22 22 24 25 24 22 19 15 13 13 12 12 12 13 15 18 21 23 22 22 24 25 25 25 24 23 23 26 32 34 39 46 46 45 43
8 9 9 9 8 8 7 5 5 5 5 5 3 5 4 6 5 2 24 49 34 15 15 14 13 13 8 5 4 6 15 16 6 14 29 29 23 21 19 21 25 27 27 27 26 22 20 19 20 21 22 21 21 21 22 23 24 22 19 16 15 15 14 13 12 12 12 13 16 20 21 20 20 23 25 25 25 24 24 22 24 30 33 40 47 45 42 37
10 10 10 10 8 7 7 5 6 6 5 6 4 4 4 6 4 7 43 58 28 16 22 17 16 17 15 15 9 6 13 18 13 10 22 31 25 20 18 17 20 24 24 25 24 22 21 19 19 20 20 20 20 20 23 22 21 19 17 15 14 14 14 13 12 12 11 12 14 16 18 19 19 21 23 25 24 23 23 21 22 28 31 35 40 39 41 40
12 12 11 11 7 7 7 6 7 5 5 7 4 5 5 6 11 23 51 50 18 15 24 19 20 20 21 23 17 13 14 19 20 13 17 29 28 22 19 16 17 19 22 23 22 21 21 19 18 18 19 19 18 19 21 20 19 18 16 14 13 12 12 12 12 11 10 12 13 13 13 15 16 17 21 23 23 22 22 22 22 26 30 32 35 41 46 47
14 13 11 10 8 7 5 7 13 10 7 6 5 8 4 6 24 40 53 44 17 13 21 20 22 23 24 24 21 21 18 17 21 19 19 27 29 26 21 18 16 16 19 22 21 21 20 19 18 17 17 18 18 18 19 18 17 17 16 13 11 10 10 11 11 10 11 12 13 12 12 13 14 16 18 20 21 21 21 23 23 24 29 30 36 47 47 42
15 13 12 10 7 7 5 6 11 10 7 9 7 7 9 20 35 40 40 33 18 18 25 25 27 28 26 25 22 24 22 18 20 21 23 26 28 29 24 19 16 15 18 21 22 21 19 18 18 17 16 17 17 16 16 17 16 15 15 12 10 9 8 9 9 9 11 12 12 12 13 13 14 15 16 17 18 19 20 21 21 24 29 31 37 48 48 39
17 16 12 9 8 7 6 5 6 7 9 11 8 10 20 31 36 35 32 24 19 28 35 35 37 36 32 29 24 24 25 22 19 20 25 26 27 30 27 21 18 17 17 20 21 20 19 18 17 17 17 17 17 16 14 15 15 15 14 12 10 9 10 12 11 9 10 10 10 11 12 12 13 14 14 15 17 19 21 20 20 25 29 32 37 45 47 40
20 16 13 13 10 5 7 9 10 11 11 11 16 29 38 36 31 31 28 25 28 37 43 43 40 38 38 34 27 24 25 24 20 19 24 26 26 29 29 23 20 19 18 19 20 19 18 18 17 17 18 17 17 16 14 14 15 15 13 11 10 10 14 18 16 13 12 10 9 9 10 11 12 13 14 14 16 18 20 20 20 25 28 32 38 44 45 38
21 16 17 13 8 11 16 16 15 14 13 20 35 46 46 37 29 26 26 36 45 44 45 46 40 38 37 32 28 25 23 23 21 20 23 26 26 27 29 26 21 20 19 17 18 18 17 17 17 17 18 18 17 16 15 15 14 14 13 11 10 11 15 19 16 15 14 11 10 9 10 11 11 11 12 13 15 16 18 19 19 23 28 33 37 37 40 38
20 20 20 13 20 34 29 16 12 12 20 38 51 49 39 29 27 34 39 49 53 45 44 45 38 36 34 29 28 26 24 24 22 20 22 24 26 26 26 26 23 20 18 17 17 17 17 16 16 16 17 18 17 17 16 14 14 13 12 11 10 12 14 15 13 12 11 10 10 9 9 10 9 10 10 11 12 13 15 16 17 19 25 33 34 31 35 40
21 22 21 25 43 42 20 9 10 21 41 55 57 51 40 29 33 49 54 51 51 48 46 41 34 32 30 26 24 22 23 24 21 22 23 23 24 25 24 25 24 21 19 17 17 17 16 15 15 15 16 17 17 17 17 14 13 12 11 11 10 11 12 12 12 10 9 10 10 9 9 8 8 9 10 10 10 12 13 14 16 16 19 27 32 31 32 36
23 25 30 46 58 33 8 9 15 39 63 65 63 60 50 43 45 54 55 48 47 49 46 40 34 33 31 29 26 23 25 25 22 21 22 23 23 23 23 23 23 23 21 18 17 17 16 15 15 15 15 16 18 18 17 15 13 12 11 11 10 11 11 11 13 12 11 12 10 8 8 9 9 9 9 10 11 11 12 13 14 15 17 22 28 33 33 32
24 33 46 58 55 23 6 16 30 55 69 63 66 62 51 51 49 50 53 49 46 48 47 41 36 35 34 35 34 32 32 33 30 22 18 20 21 21 22 22 22 22 22 21 19 16 16 15 14 15 15 16 18 20 18 15 14 13 12 11 10 11 11 11 13 14 15 15 12 10 9 9 10 10 10 10 11 12 12 12 13 14 16 19 26 32 34 31
29 40 53 59 51 19 7 31 53 64 61 57 64 54 42 48 46 45 53 54 53 52 48 44 40 39 39 40 40 38 36 37 38 32 22 19 21 23 24 24 23 22 21 22 20 18 17 15 14 13 13 15 18 19 18 16 15 14 13 12 11 11 12 12 12 14 15 17 16 14 11 10 9 11 11 11 12 13 12 12 13 13 14 16 23 28 30 29
36 42 52 56 43 12 15 47 59 55 49 50 55 45 41 50 48 46 51 54 56 54 51 51 46 41 40 42 44 48 50 46 43 41 32 25 28 29 27 27 28 27 26 23 21 20 18 16 15 14 13 15 16 18 18 16 14 14 13 13 13 12 11 12 12 12 13 15 16 15 13 11 9 10 12 12 13 14 14 13 12 13 14 16 20 25 30 30
45 52 54 50 26 6 29 52 45 45 47 44 45 40 43 53 50 47 50 51 52 52 53 53 49 45 43 46 54 62 64 58 52 49 40 32 35 36 33 34 34 32 30 27 23 20 19 17 17 15 13 13 15 17 17 15 13 13 13 13 13 12 11 11 13 11 11 12 14 14 13 10 8 10 11 12 13 15 14 13 13 13 13 16 19 23 28 29
58 62 57 50 31 21 43 48 35 41 41 35 41 41 42 49 46 47 51 50 51 56 57 53 49 48 48 54 63 63 62 62 60 59 50 39 42 44 40 40 38 34 33 31 27 22 19 18 18 18 16 13 13 15 16 16 13 11 12 13 12 12 10 11 13 12 10 10 11 11 12 11 10 9 9 11 13 14 14 13 14 14 13 14 17 19 23 26
66 61 50 50 42 35 48 47 40 46 40 38 49 46 42 46 44 47 53 50 54 63 64 58 52 51 55 64 68 63 66 68 61 59 57 51 50 48 44 43 40 37 37 34 28 23 22 21 20 22 23 17 13 14 15 15 13 11 11 12 12 11 10 10 11 11 11 10 9 10 11 12 12 10 9 11 12 13 13 13 14 15 14 13 15 16 17 22
69 59 48 50 48 46 52 49 48 54 48 50 58 51 48 50 48 52 55 53 57 66 70 64 56 58 64 68 69 67 70 70 62 63 68 69 66 56 47 45 42 40 41 39 34 30 28 25 22 24 28 22 14 13 15 15 14 12 11 11 11 11 10 11 10 11 12 11 9 9 10 12 13 11 11 11 11 12 12 13 14 14 13 13 15 17 16 20
77 69 59 59 59 59 58 51 52 58 55 56 60 55 53 53 53 58 57 56 62 71 76 70 62 65 68 65 66 68 70 73 77 80 77 75 74 63 53 49 45 43 43 41 38 37 37 33 27 28 29 23 16 14 15 15 15 13 10 10 11 10 10 11 10 11 13 13 11 9 9 13 15 13 13 11 10 11 11 12 13 12 15 18 16 17 19 20
87 82 72 71 67 60 54 48 48 53 57 62 63 60 58 56 58 59 59 61 62 57 60 68 70 71 69 67 70 71 73 80 88 89 82 78 74 64 56 51 45 43 43 41 39 41 44 39 33 31 28 24 25 24 17 15 15 13 11 10 10 11 10 11 11 12 13 14 13 10 10 16 18 15 12 9 9 11 11 13 15 15 21 25 19 17 21 22
91 92 86 85 79 66 56 51 49 48 53 61 67 68 66 62 61 59 62 69 61 45 47 63 75 76 72 72 76 77 81 84 81 77 80 83 77 65 55 51 48 45 42 40 40 42 44 40 33 30 29 28 32 32 26 22 18 14 12 11 10 11 10 11 12 11 13 16 15 12 13 18 18 14 12 10 10 11 10 12 17 19 23 27 22 20 23 25
92 99 95 96 94 84 75 69 60 49 51 63 73 74 70 66 64 60 63 69 67 64 65 61 63 73 77 76 79 81 87 86 73 66 73 79 77 68 58 52 49 45 41 38 38 41 45 44 36 31 30 29 29 28 29 28 23 18 14 11 10 11 10 11 12 11 13 16 15 13 16 17 15 13 12 12 12 11 11 14 19 21 23 25 25 25 26 28
84 96 97 96 93 88 88 88 76 61 60 66 71 73 74 72 66 62 65 67 67 76 78 64 60 72 77 78 84 87 91 91 79 69 72 78 79 74 67 60 51 45 44 43 39 42 47 47 41 33 29 28 27 27 28 29 27 23 18 12 10 11 11 10 12 12 13 15 14 15 18 18 15 13 12 13 14 14 15 19 21 20 21 22 23 23 24 26
74 90 98 97 87 80 85 93 88 75 65 60 65 74 76 70 66 63 65 66 65 71 77 75 74 76 74 78 85 87 89 92 88 81 79 82 83 79 75 71 60 51 51 48 43 46 48 45 43 38 32 31 30 28 28 29 29 27 22 15 10 10 11 10 11 12 12 14 14 16 20 20 16 14 14 15 18 18 18 21 22 20 21 21 20 19 20 23
68 87 100 100 91 82 81 88 91 84 70 60 64 72 72 70 71 69 64 65 68 71 77 82 79 74 73 77 84 88 87 86 88 89 85 84 85 82 77 72 65 59 55 51 48 49 47 43 41 39 37 36 33 28 26 28 28 27 25 19 13 12 12 11 11 11 12 14 14 15 20 19 16 17 16 16 20 21 21 23 23 21 20 20 20 19 20 24
67 86 99 101 96 89 85 85 88 87 81 72 68 68 69 71 71 69 66 69 72 74 79 81 76 72 75 75 78 85 85 81 83 82 77 77 80 82 77 70 67 65 57 51 50 49 47 45 42 38 37 37 34 30 28 28 30 29 25 20 18 18 14 11 12 12 11 13 13 16 19 18 18 22 20 20 24 24 22 22 23 23 22 22 23 24 23 23
Wind_Speed
17 17 17 18 18 18 19 19 19 19 20 20 20 19 19 18 18 18 18 18 18 18 18 18 18 17 16 16 18 19 20 21 23 25 20 14 16 17 14 13 13 15 19 22 23 23 23 23 21 19 18 16 15 12 12 14 12 10 12 11 13 13 8 4 1 3 4 1 4 5 6 7 9 9 11 15 12 9 9 10 11 13 12 12 15 16 16 21
17 17 17 17 17 17 18 18 18 19 19 20 20 19 19 18 18 19 19 18 18 18 18 19 18 18 17 16 16 17 18 20 23 22 11 12 18 16 14 13 13 14 17 20 22 23 23 22 21 19 19 16 15 14 11 13 14 13 12 12 13 13 9 4 2 5 4 1 5 6 6 7 8 10 11 13 14 13 13 12 11 13 14 12 16 18 17 21
17 17 17 17 17 17 17 17 17 18 18 19 19 19 19 18 19 19 20 19 18 17 17 18 18 19 19 17 16 16 16 18 20 14 7 14 20 16 16 14 13 13 13 17 19 20 21 19 19 19 18 17 15 15 13 13 14 15 13 12 13 12 9 6 1 3 2 3 3 8 7 6 7 8 10 11 13 14 15 14 12 12 14 13 16 18 19 21
18 18 18 18 18 18 17 17 17 17 18 18 18 19 19 19 19 19 20 20 19 17 16 17 18 19 19 18 16 15 16 16 18 15 13 18 19 16 16 14 13 12 12 14 17 19 19 17 17 17 18 17 16 16 16 15 15 15 14 14 14 11 7 8 5 5 3 4 2 7 7 6 7 6 8 11 11 12 14 14 12 10 12 14 15 17 19 21
19 19 19 19 19 19 18 18 18 18 18 18 18 18 18 19 19 19 20 20 20 18 17 17 18 19 19 19 17 16 14 11 15 15 13 17 18 17 16 14 13 12 11 13 17 19 18 17 16 17 19 19 17 17 18 17 16 15 14 14 16 12 7 10 8 3 4 3 1 4 7 6 8 6 7 10 7 9 13 14 13 9 10 12 12 15 18 20
20 20 20 20 20 20 20 19 19 19 18 18 17 17 18 18 18 19 19 19 20 18 18 17 18 19 18 19 18 17 13 10 14 12 7 14 19 19 17 15 13 12 12 14 17 19 19 18 18 21 21 20 18 19 18 17 17 17 15 14 16 15 12 12 9 3 4 6 3 2 5 5 9 8 8 8 4 7 12 15 14 9 9 11 11 13 15 16
21 21 21 21 21 21 21 20 20 20 19 19 18 18 18 18 18 19 19 19 19 19 18 17 19 20 19 20 19 18 17 14 16 16 11 12 17 19 19 17 16 15 14 15 17 19 20 21 22 22 21 21 20 19 18 17 18 19 16 14 16 14 13 14 10 10 10 8 4 3 2 4 9 8 10 8 5 9 13 16 13 8 8 11 12 13 13 12
23 23 23 23 23 23 22 22 21 21 21 20 19 19 19 18 18 18 18 19 19 19 18 18 20 20 19 20 19 20 16 9 13 20 18 15 15 19 21 19 18 17 16 16 17 20 21 22 24 23 22 22 19 18 18 18 19 21 20 16 13 12 11 11 10 13 14 10 6 5 5 7 8 7 9 10 8 10 13 15 14 9 7 10 11 12 13 14
24 24 24 24 24 24 24 24 23 23 22 22 20 20 19 19 19 18 18 19 19 19 18 19 20 21 21 20 21 20 12 8 16 21 19 16 17 17 19 21 20 19 17 16 16 20 22 23 24 24 21 20 18 18 18 19 21 21 21 19 16 14 12 11 10 14 15 12 8 8 9 8 8 6 7 11 11 11 14 16 15 9 8 9 10 11 13 15
24 25 25 25 25 25 25 25 25 25 24 24 22 21 21 20 20 19 19 19 19 19 18 19 20 21 21 21 24 19 10 10 18 22 19 17 16 16 18 19 21 20 18 17 18 22 23 22 22 22 20 19 18 19 20 21 21 19 19 20 20 18 15 14 13 13 14 13 12 11 11 9 10 9 9 12 13 12 15 18 17 9 7 8 9 11 13 14
25 25 25 26 26 25 25 26 25 25 26 25 24 23 22 21 21 20 19 19 19 18 18 19 20 22 22 23 25 18 11 10 16 22 21 18 16 15 16 17 20 20 19 19 19 22 23 21 19 19 21 21 18 19 21 22 19 18 18 17 19 21 19 18 16 14 15 16 15 13 12 11 11 11 10 13 16 15 16 19 18 12 7 6 6 9 11 14
25 26 26 26 26 26 26 26 26 26 26 26 26 24 23 23 22 21 20 20 20 19 18 19 20 21 22 26 21 13 13 15 18 19 17 20 17 14 16 17 18 19 19 19 20 22 22 21 19 20 21 19 18 17 18 21 21 20 19 19 18 19 22 21 19 17 17 17 15 14 15 15 14 13 10 13 17 17 17 19 19 16 11 7 6 7 8 13
26 26 27 27 27 27 27 27 26 26 26 26 26 25 25 24 23 22 21 21 21 20 19 18 20 21 24 26 16 11 18 20 22 23 20 22 19 14 18 18 17 17 18 18 19 21 22 21 21 22 20 18 19 17 12 14 20 22 20 20 19 19 22 22 21 20 19 18 15 15 17 16 16 15 11 13 18 19 18 19 19 19 16 11 9 8 9 10
28 28 28 28 28 28 28 28 27 27 27 27 27 26 25 25 24 24 23 22 21 21 20 20 20 21 25 24 14 16 22 21 24 26 23 22 19 16 19 20 19 18 18 18 18 19 20 21 21 21 22 21 20 18 16 14 16 20 21 21 21 22 21 20 22 22 22 21 18 18 19 16 15 17 15 15 19 19 19 20 18 18 19 16 12 10 11 10
30 30 30 30 30 29 29 29 28 28 27 27 27 27 26 25 25 24 24 23 23 22 21 21 21 22 26 23 17 21 23 23 26 24 21 22 19 17 20 22 21 19 18 17 18 17 18 20 22 23 23 23 21 20 21 20 18 18 21 23 24 24 20 18 22 24 24 22 20 21 20 17 15 17 19 19 20 20 19 20 19 18 19 17 15 12 11 10
31 31 31 32 32 31 31 31 30 29 28 27 27 27 26 25 25 25 25 24 23 23 22 23 21 22 25 21 18 22 23 23 23 22 22 23 21 18 19 21 22 21 19 17 18 18 18 20 23 24 22 22 24 23 20 21 22 22 23 24 23 23 21 18 20 25 26 21 21 24 21 17 15 14 20 22 20 20 20 21 21 20 20 20 19 15 12 12
33 33 33 33 33 33 32 32 32 31 30 28 28 28 27 26 25 26 26 25 24 23 24 24 23 23 25 23 19 16 19 23 22 23 24 24 22 19 18 20 22 22 20 18 19 19 20 22 23 24 24 24 25 24 22 23 24 24 24 24 22 21 21 19 18 21 26 22 22 25 23 19 14 12 19 22 20 21 21 21 20 18 18 19 20 17 14 14
33 33 33 33 34 34 34 34 34 34 32 31 29 28 28 26 25 27 27 25 25 25 24 24 24 22 16 16 17 12 14 19 22 25 25 24 22 20 20 21 22 22 21 20 22 23 22 23 24 24 27 28 28 28 29 27 22 21 22 23 22 22 21 22 20 19 24 25 23 24 24 22 16 14 19 20 19 21 23 22 19 17 18 19 20 19 17 15
31 32 33 33 34 34 34 34 35 35 35 34 30 29 29 27 24 27 29 25 24 25 21 21 25 22 11 10 11 12 15 14 19 27 26 24 22 22 22 22 23 23 24 25 26 26 24 24 26 29 32 32 32 33 33 28 21 19 21 21 22 22 22 22 21 18 21 24 25 25 24 23 20 18 19 21 21 21 22 22 19 19 22 23 19 17 19 18
31 31 33 33 34 35 35 35 36 36 37 37 35 31 30 29 25 25 29 25 24 26 23 24 29 27 20 18 10 7 14 16 19 25 26 26 23 23 24 23 24 26 28 28 27 27 25 26 32 36 35 33 32 32 30 28 23 20 20 21 22 23 23 21 21 20 20 22 24 24 24 23 23 21 20 20 22 23 22 20 19 18 20 24 19 15 18 22
30 31 32 34 35 36 37 37 37 37 37 37 38 35 32 32 30 29 32 28 25 27 29 29 31 31 25 24 19 9 10 16 18 21 25 27 24 26 27 27 28 30 33 29 25 25 26 31 37 37 32 29 29 30 29 27 27 26 23 22 23 23 22 22 22 21 20 20 21 23 25 25 24 23 22 21 22 24 23 20 20 18 17 20 21 16 16 20
30 31 31 33 34 36 37 37 37 38 37 36 37 35 32 31 30 32 38 37 29 25 31 31 32 35 28 25 26 21 17 18 19 22 25 26 28 29 29 31 32 32 31 29 27 27 31 39 38 32 29 28 26 28 30 28 27 29 27 24 23 23 21 22 23 20 20 21 21 22 26 26 24 23 23 23 23 23 24 22 21 20 17 18 21 20 17 17
30 31 31 32 33 34 36 37 37 38 38 38 37 35 34 32 32 32 36 44 37 26 29 34 32 34 32 28 28 29 29 26 23 25 28 30 32 31 30 32 33 30 31 33 33 31 34 39 35 28 27 28 28 28 29 30 28 29 29 26 24 21 20 22 24 22 20 21 20 19 25 27 25 25 25 25 25 24 24 23 22 21 19 20 23 22 19 16
31 31 32 32 31 32 34 36 36 37 38 37 34 34 35 34 33 33 34 43 46 36 28 30 32 34 32 27 26 32 36 33 28 27 31 34 35 33 31 32 33 32 32 35 36 35 34 29 25 28 29 28 30 29 29 30 30 29 30 29 24 20 20 20 21 22 23 23 21 18 21 25 25 26 27 27 27 27 27 25 24 23 22 24 25 24 22 18
31 32 32 33 32 31 32 34 33 35 34 31 32 33 33 33 31 32 35 38 46 42 28 26 31 32 29 25 28 34 35 36 32 28 31 36 36 36 33 30 33 34 33 34 35 37 35 24 20 26 31 31 30 31 31 30 29 29 30 31 26 21 21 20 19 21 25 25 24 20 16 19 25 27 27 27 27 28 27 27 26 24 24 26 27 25 24 20
33 32 32 33 34 32 30 31 32 32 29 27 31 33 30 30 27 28 31 30 39 37 21 21 24 22 25 30 33 31 30 37 36 28 30 36 37 35 33 31 33 33 32 32 32 35 34 26 23 25 28 31 31 31 31 29 28 28 27 29 28 23 22 22 21 22 23 23 25 27 20 16 21 26 27 28 27 27 28 27 27 27 25 26 27 26 24 20
33 33 32 32 34 34 31 30 32 30 26 25 27 29 28 26 23 23 22 17 21 17 6 13 13 13 20 27 33 33 27 30 35 34 32 34 36 36 34 33 32 32 31 29 31 34 32 29 28 26 27 30 33 33 31 30 30 26 23 24 28 27 23 23 23 23 22 21 21 29 28 20 20 24 26 29 29 29 30 30 29 29 26 26 28 27 25 22
32 32 32 32 32 35 33 31 31 29 26 25 25 24 25 23 17 15 12 7 6 4 4 10 11 14 16 19 31 37 26 16 25 36 36 33 36 38 37 35 32 31 31 32 34 32 30 32 32 29 28 29 32 33 29 29 30 26 20 19 25 29 26 24 24 23 22 21 21 27 29 21 18 22 24 28 32 32 32 31 30 31 29 29 31 27 25 23
32 31 32 32 30 32 32 31 32 31 27 26 24 21 21 18 12 8 6 8 7 4 2 3 7 13 15 18 26 33 27 14 15 25 32 36 38 38 38 36 32 29 30 34 34 28 26 30 31 30 30 29 29 29 28 28 29 25 20 17 20 24 27 28 25 23 21 20 21 25 27 19 14 20 25 28 32 33 32 31 31 32 31 30 30 25 23 23
31 31 32 32 30 30 30 29 29 29 27 24 21 20 18 12 6 8 8 10 10 8 4 2 2 8 13 17 23 29 30 23 13 15 28 38 37 37 35 32 31 30 30 33 33 30 26 25 28 32 31 27 25 25 27 28 26 23 21 19 17 18 23 26 27 26 20 17 22 23 24 19 13 17 26 29 31 31 31 32 32 32 32 30 28 26 26 25
32 32 32 32 31 29 27 25 23 24 24 21 20 17 13 9 8 12 9 9 11 7 3 7 7 4 9 14 22 26 29 28 20 17 28 37 37 38 34 30 33 32 30 34 35 32 29 26 28 32 30 26 25 25 26 27 26 24 23 21 18 18 19 20 25 26 16 12 22 25 25 23 18 19 22 23 25 27 28 31 31 32 32 30 29 28 28 28
33 33 32 30 30 30 29 30 29 26 22 19 18 13 11 12 13 14 13 12 11 8 11 19 13 5 8 12 21 24 25 28 27 23 28 36 37 40 40 36 36 35 32 34 33 31 34 34 28 27 30 30 27 26 26 27 28 26 25 25 20 15 15 13 14 17 15 14 21 26 27 26 27 27 24 20 20 24 27 27 29 32 32 31 32 32 31 30
34 34 33 30 30 33 34 33 31 27 23 19 16 12 10 12 12 14 19 15 13 15 20 25 17 12 15 14 15 21 23 24 28 26 26 34 35 37 41 39 36 35 31 29 30 31 32 34 33 29 31 34 32 29 30 30 31 31 29 29 22 12 9 10 9 10 13 17 22 26 24 26 30 30 27 25 22 21 25 27 28 30 30 34 37 36 36 34
34 34 33 31 32 33 33 30 27 25 22 18 16 14 12 13 13 14 18 15 22 20 22 28 23 18 17 13 11 16 20 20 27 28 25 32 35 35 38 39 39 36 29 25 28 31 26 26 37 36 31 34 37 33 30 29 30 32 30 28 25 19 12 10 10 10 10 14 22 25 22 23 28 27 26 29 28 23 23 25 29 31 32 37 37 35 36 36
35 35 32 29 28 26 26 26 25 24 20 16 14 14 12 12 9 14 17 23 28 24 29 32 24 21 19 14 11 13 16 16 22 26 26 31 34 34 36 39 42 38 32 27 26 30 28 26 34 37 30 31 37 36 29 27 28 30 30 29 29 27 21 13 12 16 15 11 15 22 25 26 24 21 23 26 29 30 27 24 27 32 34 36 35 32 32 34
33 33 30 24 20 20 25 25 23 20 17 16 14 13 14 14 11 24 23 24 27 28 33 30 18 17 18 14 11 12 15 18 21 25 26 29 32 34 32 34 41 41 38 32 26 26 28 26 28 34 33 30 33 36 33 28 26 28 32 34 31 28 24 17 12 17 18 11 11 19 25 26 23 20 21 23 25 29 31 28 26 28 30 34 36 34 32 33
29 28 27 20 13 21 27 23 20 17 14 14 13 13 18 22 21 25 21 23 26 26 26 23 16 14 15 16 17 15 16 19 20 26 27 27 30 33 32 31 35 41 41 35 28 23 23 23 26 33 37 33 31 34 36 31 25 27 33 32 27 24 24 20 12 10 12 9 11 19 22 23 21 18 20 24 24 24 29 31 29 27 29 33 38 37 35 32
25 23 23 16 15 24 24 18 17 15 10 11 12 14 16 20 23 22 19 22 24 22 21 19 19 19 19 22 25 24 27 28 20 21 27 28 26 28 31 31 30 37 43 38 32 26 21 21 24 32 38 34 31 33 35 35 30 26 28 29 27 22 22 23 14 8 9 7 7 15 19 20 23 22 21 24 27 25 25 29 31 30 27 31 37 40 37 32
23 18 14 17 22 23 19 15 15 12 11 11 11 14 15 16 18 18 18 19 19 19 19 19 22 24 24 24 26 29 28 27 28 22 19 23 23 22 23 25 24 30 39 41 38 31 23 20 21 29 36 34 33 36 37 38 35 28 24 27 30 24 21 23 19 12 9 6 6 10 12 14 18 21 20 21 25 25 24 26 31 32 27 28 34 37 35 33
22 15 8 21 24 18 15 15 12 10 11 12 11 13 14 15 16 16 17 17 17 16 17 19 23 26 27 25 26 29 28 25 27 27 19 10 8 14 21 23 18 18 28 37 42 39 29 22 19 23 34 37 37 39 40 38 38 35 29 28 29 26 22 21 21 21 14 6 5 6 8 13 18 20 19 19 22 22 22 24 29 32 29 27 29 32 35 36
23 15 12 20 19 14 13 13 10 9 11 13 13 14 14 15 16 16 16 16 16 15 15 18 21 23 26 25 25 28 29 28 27 27 25 15 9 4 8 14 11 15 23 27 35 42 35 24 22 23 30 40 40 37 38 37 38 38 32 29 28 28 25 17 15 22 21 13 7 6 6 8 12 18 19 18 19 19 19 20 25 29 29 29 29 30 35 35
22 16 17 18 20 19 15 10 9 9 12 13 14 15 15 15 15 15 15 16 17 15 14 16 18 21 23 22 25 27 26 30 29 27 28 21 14 15 11 3 6 12 14 14 23 37 35 24 24 26 24 32 36 32 33 34 35 36 33 29 27 28 29 21 12 17 22 19 14 11 7 2 5 13 16 12 14 18 18 18 21 26 27 28 30 30 34 34
18 12 13 15 26 22 14 10 12 10 12 14 14 15 15 15 15 15 15 16 16 16 16 16 16 19 21 19 24 26 23 28 27 23 28 26 16 16 18 16 7 4 3 9 18 28 30 26 24 23 23 25 31 31 31 31 32 35 36 34 29 28 30 24 16 16 19 20 17 12 7 4 8 12 14 9 10 14 17 18 20 24 24 23 27 30 33 34
17 13 12 18 27 18 10 10 14 13 14 16 16 15 14 14 13 14 16 17 15 15 17 17 15 18 20 18 20 23 20 22 24 23 26 25 20 17 17 18 11 5 6 5 17 19 22 25 23 17 17 19 27 27 28 33 35 35 37 37 33 29 28 25 21 18 16 19 20 13 7 8 12 13 12 9 11 13 17 19 18 22 22 19 23 28 29 32
20 14 13 18 20 13 7 11 14 15 16 17 17 16 14 14 13 13 16 16 14 15 17 18 17 18 20 18 19 21 19 18 23 27 26 26 25 17 10 13 11 11 11 10 20 16 13 18 21 18 13 13 18 19 25 33 35 34 33 37 37 32 29 27 24 19 15 16 21 19 11 13 17 11 9 10 13 13 16 19 17 20 20 17 24 29 29 32
22 15 16 19 15 8 7 12 14 15 17 18 19 16 15 15 14 14 15 14 16 18 18 19 17 16 17 17 18 20 18 16 19 23 25 25 23 16 7 8 9 13 15 16 19 10 9 15 22 24 20 13 9 9 17 26 31 33 32 34 38 36 30 28 26 22 17 16 21 21 12 15 16 10 9 13 14 14 19 20 20 23 20 18 24 29 29 31
20 13 16 20 16 9 11 14 14 15 18 19 19 17 16 15 14 14 13 14 19 21 17 15 15 15 16 17 19 18 16 16 18 21 22 20 19 17 7 4 8 10 12 14 10 7 11 16 24 26 24 18 7 3 1 8 19 31 34 33 36 38 34 30 27 24 18 14 17 20 13 11 15 14 15 16 14 16 21 20 20 22 17 15 22 26 28 31
21 13 13 15 14 14 16 17 16 17 19 19 18 18 16 14 13 13 12 13 18 19 17 16 15 15 17 17 18 17 16 17 18 21 21 18 17 17 11 3 8 3 4 2 7 8 9 15 22 25 24 21 17 11 7 4 6 16 29 34 34 36 38 35 28 25 21 15 15 18 13 9 15 18 19 20 17 18 22 21 18 17 13 14 18 20 25 31
27 21 18 15 15 16 17 17 17 18 18 18 19 17 14 12 14 14 14 15 16 15 16 19 17 17 18 18 16 15 13 14 16 16 17 16 13 12 11 6 7 11 14 12 6 5 8 12 16 23 26 23 20 18 14 11 9 11 20 33 34 33 36 36 30 25 23 18 15 17 13 10 17 19 19 21 18 18 23 20 15 16 16 18 19 16 16 21
32 27 22 20 19 17 15 15 15 16 17 17 18 17 13 13 16 15 14 16 16 15 15 16 17 18 19 18 15 13 11 12 15 14 12 13 12 9 9 8 4 12 23 17 7 8 8 9 11 16 21 22 23 23 18 14 13 14 14 23 33 33 34 36 32 27 25 20 18 20 16 14 18 18 22 28 21 20 26 19 13 18 17 17 19 15 11 14
36 29 20 20 21 18 16 14 13 15 17 16 16 17 16 16 17 16 15 15 15 15 14 15 17 18 17 17 15 15 14 13 14 13 12 14 14 10 7 5 8 15 21 19 16 13 7 7 10 13 16 18 19 22 20 13 11 16 17 17 25 27 30 35 33 29 28 23 20 23 22 20 19 19 27 31 20 18 25 18 13 16 14 13 16 11 9 15
37 31 20 18 22 21 18 16 14 14 16 15 15 17 18 18 18 16 17 17 15 14 15 16 17 17 16 17 15 15 16 15 14 13 13 15 14 13 12 6 9 16 20 20 18 13 9 7 8 10 16 20 18 19 21 13 8 16 19 15 15 16 23 33 35 31 28 26 23 22 23 23 19 20 25 23 12 12 17 13 9 11 10 11 12 7 7 12
Wind_Direction
318 315 311 308 305 303 302 300 299 298 298 298 299 300 300 299 297 294 291 289 287 286 286 285 284 283 278 270 266 264 258 252 250 250 247 240 239 241 246 248 246 238 229 223 217 216 215 218 219 218 219 218 225 217 210 232 235 236 242 249 264 275 293 291 100 16 335 155 148 144 140 132 129 124 117 123 128 127 131 143 151 150 151 160 163 170 175 168
329 326 322 319 315 312 308 304 302 299 297 296 296 297 298 298 296 294 291 289 286 284 284 284 283 282 280 276 272 267 264 259 253 250 243 238 241 239 240 243 244 241 233 228 222 216 214 216 217 218 218 216 223 226 216 224 229 226 234 245 250 272 281 233 245 295 297 152 158 157 145 144 135 137 141 134 135 140 140 150 156 155 160 165 164 168 179 175
334 332 331 329 326 324 319 315 310 305 302 298 297 295 295 294 293 292 290 289 287 284 282 282 282 281 280 278 275 272 268 264 259 252 223 233 240 235 235 239 240 242 234 229 226 219 216 215 217 219 217 214 216 226 227 223 226 226 232 237 243 265 249 214 227 178 228 309 173 160 159 150 142 148 153 142 142 147 146 154 160 162 163 164 169 171 179 179
337 335 335 333 332 330 327 324 319 315 311 306 302 298 295 291 289 287 286 287 286 286 283 280 279 278 279 278 278 275 271 274 270 254 228 233 239 234 231 232 233 236 231 223 219 216 214 210 214 217 214 214 214 221 225 221 221 225 231 235 244 256 244 250 247 125 76 305 154 151 168 157 159 161 155 153 150 153 156 161 163 171 168 164 172 172 176 181
337 336 335 334 333 331 330 328 325 323 318 315 311 305 299 293 288 285 284 285 285 286 284 280 277 274 275 276 276 273 274 284 274 257 229 228 236 236 227 224 224 222 221 218 212 209 206 202 207 210 212 214 215 220 223 221 221 227 234 238 248 253 256 259 232 112 25 268 234 166 184 168 166 167 159 161 151 158 165 167 172 182 174 164 171 169 174 181
334 333 331 330 329 329 329 328 327 325 321 319 316 312 306 298 292 287 284 283 282 283 282 279 276 272 272 272 272 271 264 252 259 268 239 222 227 233 230 220 215 213 211 212 207 203 199 196 204 208 210 215 216 220 223 221 222 231 238 239 252 258 256 249 221 218 264 244 270 224 205 171 170 178 165 160 141 152 161 169 182 189 177 166 164 163 168 177
330 328 327 326 325 324 324 323 323 321 320 319 318 316 311 306 299 293 287 283 280 279 277 276 274 272 270 269 269 267 260 252 261 272 259 231 224 227 230 221 215 214 210 212 203 196 198 196 203 208 210 217 217 219 224 223 224 231 237 237 250 259 256 247 232 232 226 224 257 264 251 181 183 187 168 165 144 146 159 172 188 190 184 178 166 159 161 172
327 325 323 322 321 320 319 318 317 316 315 315 317 315 313 310 305 300 292 285 280 277 274 272 270 271 269 268 267 264 265 257 247 255 250 236 227 223 226 223 219 218 211 216 203 192 201 201 203 208 212 219 219 221 223 226 228 231 235 235 243 255 264 260 246 238 224 220 246 240 229 202 194 192 179 182 154 143 157 173 189 179 171 188 179 164 163 171
325 323 321 319 318 317 315 314 313 311 310 310 311 311 311 310 308 305 297 291 284 278 274 269 267 268 268 266 265 262 264 247 234 248 253 240 232 224 225 222 220 220 214 215 202 194 203 205 206 208 213 221 223 225 225 228 231 229 234 236 236 243 255 259 254 245 227 221 241 238 228 215 201 195 192 189 169 156 155 165 185 173 146 175 186 178 173 174
325 323 321 319 317 316 313 312 310 309 307 306 306 306 306 306 305 304 300 296 289 283 276 270 265 264 264 263 262 258 255 256 250 254 257 247 236 225 222 221 220 219 216 215 200 197 206 207 209 211 217 225 227 230 228 229 234 232 234 236 237 238 240 240 239 238 230 230 239 236 230 223 212 207 201 186 174 167 157 164 181 177 143 156 179 188 182 180
326 324 321 319 317 315 314 311 309 307 305 304 303 302 302 301 301 301 299 297 293 289 280 272 266 261 261 259 259 260 250 248 256 260 263 256 238 224 223 220 220 218 213 215 203 199 207 208 208 213 220 226 228 234 235 232 236 237 236 239 240 238 238 237 234 231 231 235 234 232 234 229 216 210 206 187 176 174 167 167 174 180 171 150 167 188 188 187
328 326 323 321 318 317 314 312 310 308 305 303 301 299 298 296 296 295 295 294 293 291 284 277 269 262 259 256 257 263 246 232 238 249 257 259 247 224 223 220 217 217 213 212 202 200 208 209 209 215 220 225 228 233 240 237 236 239 238 240 242 240 240 236 233 231 230 234 231 229 234 229 217 212 208 191 182 179 175 172 172 179 184 175 178 185 191 196
331 328 326 324 321 319 316 314 311 309 306 303 300 298 295 293 292 291 290 289 290 289 286 280 273 266 259 255 255 248 242 236 236 236 235 249 254 230 218 218 214 211 211 207 198 201 210 211 213 218 221 225 228 228 237 239 235 237 237 237 239 240 239 234 231 231 230 232 226 223 230 227 219 214 209 191 181 177 177 177 174 177 180 190 204 191 188 202
333 331 328 326 323 321 319 316 313 311 308 304 301 298 295 292 289 287 286 284 284 284 284 280 275 270 261 257 252 240 239 238 241 242 237 241 248 236 219 214 212 204 203 197 191 203 212 213 218 222 225 227 229 231 240 245 234 233 234 233 235 238 239 232 228 228 229 228 219 220 229 229 224 216 206 188 180 178 177 178 178 179 178 189 211 197 188 203
333 330 328 327 324 322 320 318 315 313 310 307 303 299 295 292 288 284 281 280 280 279 279 277 274 271 267 263 251 241 237 234 240 243 242 240 235 230 222 214 208 203 203 192 185 205 214 215 219 223 226 228 230 235 239 241 234 228 229 228 228 234 241 237 228 220 220 223 215 216 226 229 227 217 202 190 184 184 182 181 181 182 180 193 213 208 198 203
335 332 331 328 325 323 321 318 316 314 312 310 307 302 298 293 290 285 279 276 274 275 274 273 272 271 270 268 252 243 239 235 240 241 237 237 229 219 222 219 208 205 209 197 189 203 215 216 219 223 225 225 226 231 236 236 230 223 225 228 224 227 234 238 234 219 211 214 212 214 222 224 227 221 202 193 190 187 187 185 184 186 185 195 212 216 210 201
337 336 335 332 330 327 324 321 318 315 312 311 309 306 301 296 293 286 280 274 271 270 269 269 269 268 268 267 260 253 250 237 230 236 235 234 227 212 212 216 209 208 211 207 202 205 213 216 217 221 222 223 222 221 227 230 224 217 219 226 226 225 227 230 236 223 208 208 211 213 219 220 222 214 194 191 192 190 190 187 189 199 198 203 216 217 212 205
340 339 338 336 334 331 330 327 323 319 315 312 311 309 305 302 298 290 281 274 270 266 265 266 263 264 270 264 255 247 252 244 226 228 232 233 224 203 202 208 203 205 207 210 212 207 210 213 214 219 219 220 218 213 218 222 218 215 214 219 224 228 229 226 231 225 207 206 211 211 216 219 214 198 188 192 197 198 203 201 195 201 204 211 219 214 210 209
348 346 343 341 339 335 335 332 328 326 321 317 314 311 306 300 296 291 283 275 269 262 260 263 253 245 239 234 237 230 236 239 226 225 226 230 221 198 199 205 200 201 204 207 211 206 206 210 211 216 217 215 214 213 217 219 219 221 218 218 221 225 230 228 229 224 206 207 213 211 214 216 212 203 197 202 204 203 211 211 202 204 208 212 217 215 211 210
355 354 350 350 347 343 342 339 335 331 328 325 319 316 313 306 304 297 286 276 269 261 248 248 252 246 234 228 224 226 237 230 221 223 222 225 215 195 196 202 199 201 204 205 207 203 202 210 213 215 215 213 214 215 218 221 224 228 226 223 222 224 228 228 228 221 204 208 215 215 217 216 214 211 204 203 202 202 207 209 211 221 219 212 215 220 213 211
355 355 353 353 352 349 348 348 343 337 333 330 324 326 327 321 317 307 293 276 262 264 255 243 248 250 237 229 221 203 231 234 224 219 220 221 208 193 196 197 195 202 205 203 204 204 206 216 219 217 215 215 216 217 219 222 225 232 235 231 227 225 226 229 230 217 201 209 216 214 219 220 216 213 208 205 201 201 205 207 213 225 226 215 218 227 219 214
351 351 351 351 352 348 348 351 350 343 338 332 328 330 331 328 323 314 305 287 259 252 261 249 241 246 240 230 227 212 209 218 219 215 213 213 203 195 196 195 195 201 202 199 202 203 210 222 222 217 216 217 218 218 219 222 224 230 236 238 234 225 222 228 232 218 200 211 217 212 220 224 219 216 212 208 205 207 210 211 214 221 222 216 221 232 235 225
346 346 345 345 348 345 344 349 351 347 343 338 333 332 331 329 324 318 310 298 277 249 254 255 246 247 242 231 226 219 216 215 211 210 207 206 203 197 196 197 197 200 199 199 202 202 211 224 222 214 216 216 218 219 217 221 224 226 230 234 236 229 220 222 226 218 206 214 219 213 220 226 224 222 221 216 214 218 219 215 216 217 216 219 227 236 241 238
342 341 340 340 342 342 340 341 347 349 346 339 332 329 329 326 326 320 310 302 288 264 255 260 252 247 242 233 225 222 226 225 214 207 206 206 204 198 197 199 198 200 203 202 204 209 216 224 219 213 216 215 218 219 215 218 222 224 226 228 232 231 228 228 224 215 208 212 217 215 221 224 223 224 223 220 221 225 222 217 217 215 212 220 230 237 240 244
340 340 339 338 339 340 339 337 342 347 344 336 328 326 324 322 326 322 315 309 295 282 272 264 255 247 240 228 222 222 226 229 218 204 208 209 204 200 198 200 203 204 206 205 208 217 222 223 216 212 214 215 217 218 216 216 219 224 225 225 228 228 230 235 233 220 209 206 210 215 228 226 220 223 223 219 222 225 220 214 213 210 211 221 227 232 237 243
341 341 340 338 337 339 340 337 337 341 339 333 327 322 319 320 325 325 322 312 300 300 289 262 256 249 234 221 220 218 220 231 222 200 206 213 207 203 199 200 207 208 207 207 211 221 225 221 217 214 213 214 216 218 217 214 218 224 223 223 226 228 230 231 235 232 217 209 210 211 221 231 220 221 224 220 221 223 220 217 212 206 208 217 220 224 232 239
340 341 341 340 338 338 341 338 335 338 336 329 326 318 313 319 323 328 330 307 298 314 282 232 238 233 223 219 218 209 209 230 224 202 200 211 208 203 204 204 205 209 206 205 215 221 221 217 216 215 212 213 215 217 216 212 218 224 221 219 222 226 230 229 233 238 228 223 220 208 210 227 228 224 222 220 222 221 221 221 211 202 203 211 218 223 232 242
341 341 342 342 341 340 341 338 335 338 335 328 326 317 309 315 324 331 331 290 288 346 189 205 213 211 201 208 217 212 210 224 223 209 196 204 211 202 206 209 205 209 204 204 216 219 216 215 215 214 212 213 215 215 213 211 217 222 218 216 220 221 226 230 235 241 237 234 230 212 208 220 230 225 220 218 222 222 222 221 212 204 204 211 222 229 235 243
342 341 343 345 345 342 341 339 337 338 335 327 324 317 307 315 329 321 293 254 264 329 310 233 220 208 187 191 208 211 212 209 224 221 196 198 211 205 207 211 207 213 210 210 220 220 217 218 214 215 216 215 216 214 212 212 214 216 216 218 219 218 220 226 233 241 242 243 239 223 214 224 234 224 217 215 219 221 221 222 217 208 204 209 220 225 226 232
343 343 345 346 346 347 345 343 338 332 328 322 319 316 307 312 311 274 252 235 269 323 345 313 270 215 194 190 201 207 211 207 215 229 200 196 207 206 209 213 210 217 218 217 224 224 222 220 214 218 218 215 216 214 211 212 212 210 213 218 218 214 215 219 225 231 240 243 241 232 220 227 243 231 221 215 216 219 218 219 217 207 201 204 209 210 219 229
345 345 348 348 349 350 349 350 343 330 324 318 315 314 306 300 260 247 243 240 278 318 9 351 350 239 213 203 206 210 214 213 211 212 197 194 200 203 205 209 210 217 221 220 222 224 226 222 214 215 218 214 213 213 210 209 209 207 207 212 213 209 209 213 215 219 230 233 228 228 225 229 240 237 227 218 215 217 218 219 214 203 198 202 204 203 216 232
346 346 348 349 347 346 349 355 353 344 334 324 320 320 312 290 247 235 249 261 288 329 353 342 332 300 292 249 222 216 216 215 210 208 199 194 197 200 202 204 203 207 215 215 214 217 222 223 216 212 214 212 209 209 206 202 203 204 202 205 208 201 198 208 209 210 226 232 223 222 223 232 241 238 232 227 219 217 220 220 210 203 202 206 209 206 210 226
346 346 349 348 346 349 356 357 354 350 342 333 332 326 307 281 255 251 256 270 319 329 338 333 303 296 325 295 240 218 216 214 208 209 204 197 200 203 205 207 203 204 211 210 207 210 216 221 219 212 209 209 207 204 200 196 198 201 199 200 204 198 185 203 211 212 225 227 223 222 222 231 240 238 233 230 227 221 218 217 212 210 208 207 211 213 214 223
345 349 349 349 354 358 358 353 349 350 345 343 339 319 295 269 269 279 274 315 343 320 326 332 302 294 314 295 262 225 216 213 208 211 208 200 203 207 207 209 208 208 212 210 208 209 210 214 215 211 205 205 207 206 201 195 195 200 201 200 205 205 196 198 208 217 224 221 218 217 219 230 234 234 231 229 228 226 220 217 217 215 209 207 216 226 223 219
348 352 347 352 5 358 346 345 348 350 349 351 338 313 292 262 288 339 331 345 346 320 326 333 309 299 301 282 272 251 237 230 210 208 211 205 206 209 208 209 209 208 210 213 211 210 214 218 213 210 207 204 204 205 203 198 197 199 200 204 209 205 203 211 218 218 223 224 214 211 219 229 235 236 231 227 227 225 223 222 220 216 211 208 217 227 216 203
354 349 342 356 9 345 338 345 350 355 358 356 343 318 290 271 333 5 348 340 342 330 333 336 313 294 285 271 272 258 257 255 223 211 216 214 213 215 213 212 211 208 208 212 211 207 214 220 211 206 209 207 202 201 202 201 198 194 198 207 210 205 208 220 227 219 220 228 218 214 220 224 232 239 228 222 224 222 219 220 219 215 209 207 213 217 206 194
357 343 346 5 355 332 340 345 352 5 4 352 347 329 301 289 322 350 338 331 336 332 334 330 315 304 293 298 304 297 306 295 244 216 216 216 218 219 218 216 213 211 210 212 218 216 215 220 210 203 206 206 200 199 203 207 202 194 200 207 205 205 215 226 238 223 214 228 221 217 222 217 217 227 222 216 219 219 215 214 216 215 207 207 212 210 204 196
355 350 356 353 324 329 338 342 357 8 349 332 337 338 323 309 321 336 333 331 331 329 328 314 305 313 315 316 315 317 327 322 292 241 220 218 222 220 220 221 217 215 213 213 222 224 219 223 214 203 203 200 193 195 203 210 209 204 203 203 201 202 208 217 230 231 217 228 221 219 226 219 210 213 217 214 213 217 218 210 210 213 209 206 205 202 203 200
352 13 4 312 308 325 336 350 359 350 327 319 324 334 332 320 323 331 333 334 331 327 322 310 306 309 312 314 314 318 322 320 317 301 251 225 221 213 212 217 214 214 214 215 222 225 223 229 220 201 199 195 190 195 202 205 207 211 210 201 203 208 206 207 215 227 230 224 216 224 232 230 217 207 207 210 207 210 217 210 205 208 209 203 201 202 204 199
352 32 357 299 307 324 345 4 353 323 323 322 319 329 328 321 325 330 331 332 333 325 313 310 309 304 306 311 311 317 320 314 317 318 304 274 221 200 196 198 201 203 204 208 217 223 226 234 233 208 195 194 195 198 201 200 199 205 209 202 199 205 209 208 211 219 230 235 218 220 225 234 227 208 201 206 202 201 210 210 204 204 205 200 201 207 204 197
358 11 325 307 321 345 9 9 337 319 329 325 324 328 324 322 326 326 326 329 328 323 313 309 307 301 305 312 313 313 314 313 313 313 311 324 1 330 204 185 188 191 191 197 209 218 221 225 235 226 200 196 201 201 200 201 200 200 206 205 198 198 202 205 208 211 219 234 235 229 237 241 221 201 197 198 192 191 202 205 200 201 202 199 200 205 204 203
2 352 337 328 326 346 14 1 326 330 330 325 327 325 320 321 321 320 324 327 324 322 318 309 306 303 302 309 311 304 305 310 306 305 314 326 341 331 322 297 207 191 199 211 206 210 216 218 229 236 222 204 201 202 200 202 204 203 206 208 202 199 201 204 206 200 207 221 231 242 253 25 99 164 174 174 178 185 193 193 192 195 200 202 200 201 208 213
4 2 1 316 301 325 2 342 327 332 321 321 324 322 320 319 319 321 323 327 327 324 321 314 310 306 303 309 308 300 307 310 296 299 319 326 326 318 324 324 284 197 253 237 200 202 216 225 229 241 252 225 198 197 203 203 206 206 206 209 207 203 202 205 210 200 202 211 214 232 238 117 104 148 158 157 166 174 182 185 187 189 194 201 198 200 210 209
1 12 0 301 299 328 360 331 330 328 318 320 322 322 324 321 322 323 323 328 329 324 322 318 311 304 302 308 305 299 305 302 296 309 316 316 322 319 325 330 305 285 333 222 188 194 212 223 223 231 254 226 190 190 198 200 207 210 206 206 210 209 201 204 211 205 206 209 203 215 221 146 132 150 161 171 179 179 180 180 184 185 187 197 195 194 202 196
352 355 338 311 316 339 344 328 330 323 318 321 321 322 323 323 323 320 320 323 320 320 322 317 310 303 302 306 302 296 294 293 304 316 310 306 315 317 328 343 320 293 294 217 185 191 213 223 221 220 231 210 186 195 199 195 203 211 208 203 206 211 203 199 207 207 204 202 200 213 210 143 137 152 161 168 181 183 175 171 174 175 180 194 192 189 196 197
347 337 327 326 332 340 330 325 322 319 320 320 318 318 320 321 319 319 320 314 310 315 319 316 312 308 306 310 308 299 294 300 308 312 313 309 306 309 340 7 339 303 274 217 188 206 261 242 225 223 229 217 169 176 198 197 200 207 210 203 202 209 208 200 204 207 198 189 196 209 197 145 148 160 150 158 171 169 165 168 170 169 173 181 183 187 193 195
346 327 326 332 333 335 325 317 315 318 317 314 311 309 313 313 311 319 320 312 316 322 323 321 318 315 312 314 315 308 302 304 293 289 306 313 299 295 304 47 3 309 250 216 216 271 281 249 228 226 235 232 202 119 176 205 204 207 209 205 200 204 207 205 204 202 194 186 190 196 189 164 163 158 146 152 158 158 163 166 164 164 162 163 172 180 181 177
343 319 320 325 318 314 314 311 314 312 307 309 308 304 309 309 309 320 318 312 323 326 323 324 321 317 316 315 315 313 310 310 295 280 288 305 303 288 273 45 48 71 164 250 284 288 287 262 238 231 237 239 233 242 275 289 243 218 212 207 202 201 204 208 206 198 193 194 185 178 175 164 155 151 149 147 142 149 154 147 144 147 139 141 157 167 170 170
342 324 312 307 305 307 310 308 308 306 305 310 309 303 303 305 309 320 320 317 323 321 316 321 324 320 317 315 314 313 314 313 301 286 285 297 306 294 296 345 84 93 49 12 316 299 296 265 238 232 238 244 241 241 250 258 281 279 229 209 202 200 203 207 208 201 195 197 189 174 164 150 150 151 152 147 137 140 146 137 135 143 133 133 141 143 160 178
341 332 313 300 303 311 315 310 305 305 306 308 308 307 305 306 311 320 321 318 318 314 310 314 317 316 314 314 311 306 311 305 291 288 290 293 292 288 314 343 40 38 21 8 347 343 307 252 233 235 242 251 246 237 238 243 260 287 267 215 202 202 202 204 208 205 197 196 192 181 168 155 159 160 157 156 144 132 138 131 125 138 129 124 136 133 136 168
336 334 314 293 294 304 314 315 309 305 304 303 307 309 309 308 311 316 314 307 304 305 303 302 310 312 311 314 311 307 311 303 288 284 280 283 283 267 272 334 0 355 354 351 349 353 332 261 244 242 248 256 246 228 224 230 249 273 273 226 204 205 203 201 204 206 200 195 191 186 175 162 165 169 163 162 157 139 138 126 107 129 132 130 142 145 141 148
331 332 319 288 281 287 300 310 313 306 300 302 306 305 305 305 307 310 306 300 302 306 298 299 310 312 310 312 311 309 308 302 300 295 271 265 270 257 251 284 338 326 320 329 339 347 350 316 265 251 254 250 243 230 221 217 242 259 250 220 207 222 215 202 201 206 204 197 194 190 179 167 157 155 159 162 158 145 146 137 122 135 146 150 149 141 142 150